Temp
63 63 62 62 62 62 62 62 62 62 62 62 62 62 62 62 62 80 92 87 91 74 75 101 101 101 103 101 101 102 90 88 87 88 90 98 96 102 104 98 97 95 93 96 100
62 62 62 62 62 62 62 62 62 62 62 62 62 62 62 62 83 95 80 77 77 76 99 98 96 99 97 98 100 95 91 89 94 95 93 96 96 97 96 92 94 93 95 98 101
62 62 62 62 62 62 61 61 61 62 62 62 62 62 62 66 87 96 78 77 77 82 104 105 103 100 96 100 97 96 90 94 94 95 97 95 93 96 91 85 89 89 93 97 96
62 62 62 61 61 61 61 61 61 62 62 61 61 61 62 80 82 98 78 77 78 95 102 101 100 95 94 92 98 91 94 95 95 96 96 92 94 89 89 87 92 93 95 94 93
61 61 61 61 61 61 60 61 61 61 61 60 61 62 70 87 94 95 78 81 96 99 100 100 97 97 92 96 95 92 93 94 95 96 95 95 89 88 88 93 94 94 93 91 91
60 60 60 61 61 60 60 60 60 60 60 61 62 61 82 85 104 103 103 100 102 103 101 103 99 100 96 94 93 95 93 94 95 94 94 90 90 89 87 91 85 83 87 87 85
60 60 60 60 60 60 60 60 59 59 61 62 63 76 89 92 106 107 106 104 106 104 99 102 103 98 98 93 98 95 89 93 92 93 91 90 78 83 89 89 87 85 86 86 86
60 59 59 60 60 60 60 60 59 61 64 64 64 85 90 104 107 105 107 104 105 106 103 104 103 99 97 99 94 90 91 82 92 92 93 91 72 86 92 89 85 84 83 82 83
60 59 59 59 60 60 59 59 61 65 65 65 75 86 88 89 96 105 107 101 103 104 103 102 100 95 97 89 86 88 81 83 84 94 92 90 76 87 92 89 83 83 82 81 82
60 59 59 59 59 59 59 59 64 66 70 83 88 83 94 91 100 103 107 103 98 99 96 95 94 91 92 89 79 82 83 86 83 89 90 85 81 85 89 87 83 83 82 80 80
60 59 58 59 59 59 65 86 88 82 91 84 86 85 93 100 101 99 103 99 98 95 87 93 88 85 90 91 91 88 85 83 85 89 87 84 81 83 86 85 82 82 80 78 79
59 59 59 58 59 59 73 85 79 82 74 92 89 89 94 97 90 96 105 92 90 86 92 90 84 92 92 91 89 87 83 82 84 87 87 83 80 83 85 84 83 82 81 80 80
58 58 58 58 58 71 84 81 90 88 75 87 90 89 93 97 91 92 98 95 90 88 89 86 89 92 89 87 85 86 83 81 81 84 87 84 72 65 84 84 83 83 83 83 82
58 58 58 56 68 77 80 87 93 87 72 80 83 87 94 96 88 102 102 96 92 88 91 89 93 89 87 85 87 81 88 85 82 79 68 82 68 64 78 77 80 78 81 82 81
58 58 57 56 69 78 82 89 91 83 62 84 87 99 98 91 93 92 103 96 88 88 90 86 87 86 85 85 88 82 88 86 84 81 80 81 74 71 67 68 76 77 80 82 83
58 58 56 75 76 83 86 86 85 68 61 77 87 85 86 90 92 95 93 99 97 90 92 90 95 92 90 89 89 90 85 85 84 82 71 62 76 59 56 68 76 74 79 80 81
58 58 60 73 79 86 85 79 69 65 84 74 78 86 85 84 86 89 87 86 84 78 79 85 88 92 92 86 90 88 81 71 67 67 65 75 76 72 78 82 81 75 71 78 81
56 55 67 79 86 85 80 73 60 76 77 85 84 84 80 85 85 87 85 83 89 88 84 78 74 87 91 88 84 83 82 72 60 65 71 79 68 67 81 84 86 84 79 80 78
54 85 87 87 89 84 74 64 73 78 81 79 83 78 79 83 83 85 83 85 88 89 79 79 77 89 89 91 90 82 78 85 73 77 71 69 73 79 82 81 82 82 79 78 81
73 81 85 87 85 81 73 62 77 82 82 82 74 81 73 78 80 83 82 85 83 87 91 84 74 86 88 91 91 85 88 74 77 62 60 73 67 63 71 75 78 79 78 79 80
72 77 84 89 84 77 68 76 78 85 83 79 79 77 79 77 83 83 81 83 85 87 91 87 80 80 85 83 81 83 81 79 77 74 64 62 62 74 72 74 75 78 79 80 80
76 71 88 88 73 76 70 78 65 81 84 82 81 83 81 82 82 80 78 82 85 87 82 84 81 76 77 84 88 84 79 78 69 66 72 69 61 76 76 78 77 78 79 80 80
73 79 89 84 68 72 76 75 79 79 80 81 80 84 87 81 76 81 80 83 86 85 80 83 78 70 72 79 82 78 79 79 75 73 66 64 60 77 77 76 78 76 78 79 79
74 70 79 80 80 71 72 72 74 83 79 82 82 85 82 81 84 79 79 82 86 83 66 77 77 72 68 70 78 71 75 77 74 68 69 67 68 72 74 73 75 76 77 77 77
74 72 75 71 75 74 73 73 73 75 80 82 81 83 81 77 80 79 82 82 84 70 80 81 71 76 76 78 78 75 73 74 71 72 66 68 68 69 71 72 74 76 74 73 73
71 72 77 75 73 71 65 71 72 76 77 77 76 84 85 79 81 77 81 82 79 83 80 80 71 75 72 76 76 71 73 73 73 73 72 71 67 75 76 76 74 73 71 70 70
80 78 72 68 73 72 74 72 74 75 79 82 84 84 82 85 88 89 88 85 84 80 77 76 74 71 66 74 73 66 70 71 73 74 72 66 69 74 72 71 72 70 69 67 65
MSLP
1019.73 1019.18 1018.68 1018.06 1017.73 1017.21 1016.72 1016.14 1015.70 1015.03 1014.64 1014.32 1013.95 1013.52 1013.15 1012.66 1011.78 1011.34 1008.64 1008.13 1007.86 1008.45 1008.58 1007.22 1006.86 1006.17 1005.26 1003.95 1003.72 1002.89 1000.55 999.08 1000.06 1000.11 1000.36 1000.76 1000.20 1000.41 1000.55 1001.16 1002.53 1003.59 1004.50 1004.92 1005.05
1019.47 1019.21 1018.67 1018.11 1017.57 1016.95 1016.45 1015.87 1015.32 1014.75 1014.24 1013.91 1013.66 1013.31 1012.96 1012.60 1010.94 1008.34 1008.37 1008.01 1008.35 1008.55 1007.46 1006.31 1005.58 1005.25 1004.18 1003.19 1002.90 1002.14 1000.10 1000.23 1001.41 1001.41 1001.18 1001.36 1001.67 1001.52 1001.26 1002.52 1002.82 1004.13 1005.14 1005.18 1004.86
1019.79 1019.31 1018.74 1018.19 1017.49 1016.78 1016.28 1015.58 1015.01 1014.34 1013.80 1013.42 1013.33 1013.09 1012.84 1012.41 1009.57 1006.66 1007.84 1008.16 1008.54 1008.56 1006.51 1005.35 1004.70 1004.40 1002.94 1002.58 1002.28 1001.54 1000.82 1001.46 1001.93 1002.41 1001.90 1001.83 1002.51 1003.16 1002.90 1004.04 1004.93 1005.29 1005.36 1005.56 1006.48
1019.59 1019.00 1018.50 1017.82 1017.14 1016.51 1015.78 1015.19 1014.46 1013.96 1013.24 1012.93 1012.98 1012.87 1012.73 1011.43 1007.16 1006.76 1007.77 1008.29 1008.60 1008.12 1006.61 1005.46 1004.48 1003.65 1002.40 1002.18 1002.02 1001.72 1001.91 1002.16 1002.20 1002.23 1002.00 1002.40 1003.39 1004.23 1004.85 1005.87 1006.48 1006.63 1006.68 1006.96 1007.23
1019.37 1018.91 1018.34 1017.67 1016.90 1016.18 1015.59 1014.96 1014.30 1013.58 1012.47 1012.59 1012.64 1012.69 1012.41 1009.08 1005.86 1007.22 1007.78 1008.24 1008.13 1007.52 1005.84 1004.48 1003.74 1002.79 1002.01 1001.63 1002.17 1001.86 1002.02 1002.49 1002.72 1002.71 1002.92 1003.49 1004.14 1004.90 1005.69 1006.37 1007.12 1007.61 1007.77 1008.26 1008.78
1019.38 1018.86 1018.12 1017.45 1016.75 1016.01 1015.28 1014.56 1013.56 1012.61 1012.06 1012.38 1012.33 1012.64 1010.76 1007.08 1005.69 1006.61 1006.68 1007.28 1006.66 1006.04 1005.02 1003.93 1003.14 1002.93 1002.18 1002.03 1002.00 1001.70 1002.34 1002.49 1002.70 1002.79 1003.14 1003.83 1004.42 1005.22 1006.52 1007.46 1008.59 1009.07 1009.46 1010.05 1010.49
1019.38 1018.70 1017.91 1017.03 1016.26 1015.53 1014.87 1013.87 1012.74 1012.20 1011.97 1012.11 1012.08 1011.66 1008.73 1005.89 1005.41 1006.02 1006.13 1006.08 1005.73 1005.22 1004.64 1004.48 1004.24 1003.77 1002.63 1002.09 1002.31 1002.31 1002.12 1002.28 1002.62 1002.68 1003.18 1004.84 1006.37 1005.94 1006.85 1007.94 1008.69 1009.83 1010.37 1010.83 1011.10
1019.22 1018.64 1017.92 1016.94 1015.92 1015.20 1014.15 1013.17 1012.41 1011.93 1011.89 1012.06 1011.99 1010.52 1006.43 1005.73 1005.49 1005.74 1005.69 1005.54 1005.72 1005.41 1005.24 1004.93 1004.70 1004.02 1002.91 1002.33 1002.42 1002.16 1001.60 1001.41 1001.95 1002.34 1002.53 1003.93 1004.68 1006.23 1006.32 1007.49 1009.15 1010.20 1011.12 1011.69 1011.99
1019.20 1018.53 1017.87 1016.95 1015.84 1014.45 1013.43 1012.65 1012.15 1011.72 1012.11 1012.17 1011.40 1009.28 1005.74 1006.58 1005.82 1005.26 1005.24 1004.92 1005.22 1005.18 1005.12 1005.28 1004.87 1003.62 1002.66 1002.11 1001.28 1001.19 1000.34 1000.57 1001.73 1002.20 1001.73 1002.77 1004.73 1005.74 1006.01 1007.33 1009.29 1010.51 1011.50 1012.08 1012.56
1019.07 1018.50 1017.58 1016.88 1015.79 1014.33 1013.15 1012.44 1012.05 1012.01 1011.96 1010.91 1009.68 1008.27 1005.67 1005.01 1004.74 1004.75 1004.94 1004.93 1004.75 1004.61 1004.54 1004.60 1003.93 1002.53 1001.75 1000.60 999.31 999.35 999.58 999.89 1000.67 1001.74 1002.28 1000.96 1004.29 1005.73 1006.54 1007.71 1009.37 1010.46 1011.49 1012.35 1012.90
1019.07 1018.33 1017.42 1016.61 1015.31 1014.46 1012.88 1011.21 1011.34 1011.12 1009.09 1008.33 1007.42 1006.52 1004.93 1004.81 1005.13 1004.85 1004.82 1005.06 1004.63 1004.11 1003.21 1002.97 1002.03 1000.57 999.93 1000.03 999.91 999.69 999.73 1000.06 1001.38 1002.08 1002.21 1002.77 1005.00 1006.29 1007.19 1008.18 1009.37 1010.38 1011.56 1012.58 1013.01
1019.13 1018.40 1017.57 1016.51 1015.40 1014.20 1012.57 1011.25 1012.65 1012.52 1009.90 1007.04 1006.83 1006.31 1005.55 1005.12 1004.40 1004.07 1004.33 1004.24 1003.88 1002.73 1002.11 1001.74 1000.81 1000.32 1000.81 1000.78 1000.41 1000.05 1000.00 1000.77 1002.15 1002.95 1002.92 1003.50 1004.69 1006.59 1007.64 1008.29 1009.20 1010.10 1011.13 1012.11 1012.84
1019.06 1018.56 1017.71 1016.46 1014.93 1013.79 1012.62 1012.35 1012.32 1011.93 1010.06 1006.22 1005.93 1005.28 1004.59 1004.60 1003.46 1003.54 1003.99 1003.42 1002.72 1001.64 1001.41 1000.21 1000.33 1001.28 1001.05 1000.79 1000.45 1000.15 1000.08 1001.21 1001.45 1002.57 1002.73 1003.00 1004.55 1007.37 1007.33 1008.76 1009.56 1010.24 1010.93 1011.56 1012.24
1018.96 1018.40 1017.90 1016.30 1015.01 1014.24 1012.32 1012.28 1011.83 1011.99 1009.05 1005.64 1005.10 1004.70 1004.05 1003.63 1003.16 1003.01 1003.39 1002.80 1001.99 1001.11 1000.74 1000.16 1001.16 1001.30 1000.90 1000.59 1000.80 1000.17 1000.96 1001.43 1001.82 1002.25 1002.24 1004.08 1004.96 1006.86 1006.52 1007.97 1008.98 1010.24 1011.03 1011.51 1012.38
1018.95 1018.30 1017.77 1017.58 1016.01 1013.54 1013.06 1012.38 1012.02 1011.88 1006.86 1004.29 1003.81 1003.61 1003.03 1002.81 1002.45 1003.18 1003.13 1002.78 1001.60 1001.20 1001.05 1000.37 1001.16 1001.11 1000.68 1001.08 1001.31 1001.34 1001.45 1001.63 1001.74 1001.88 1001.93 1002.38 1004.06 1006.60 1008.35 1008.14 1009.34 1010.14 1010.56 1011.15 1012.09
1018.61 1018.32 1017.52 1015.40 1015.25 1013.65 1013.16 1013.08 1011.88 1009.86 1004.96 1003.82 1003.31 1003.28 1002.97 1002.68 1002.32 1002.50 1002.96 1002.85 1001.93 1001.31 1001.09 1000.77 1001.35 1001.03 1000.82 1001.73 1001.70 1001.80 1001.81 1001.67 1001.67 1001.44 1001.67 1004.25 1004.21 1007.99 1009.00 1009.08 1009.54 1010.70 1010.91 1011.03 1011.88
1018.25 1017.71 1017.82 1016.27 1013.70 1013.48 1013.22 1012.12 1009.72 1006.21 1003.75 1003.67 1003.06 1002.66 1002.44 1002.34 1002.26 1002.32 1002.32 1002.11 1001.36 1001.14 1000.74 1001.11 1001.15 1001.36 1001.66 1001.32 1001.59 1001.57 1001.38 1000.73 1001.14 1000.97 1001.27 1003.52 1003.65 1005.92 1007.42 1007.93 1008.64 1010.30 1011.44 1011.68 1012.14
1017.69 1016.99 1015.41 1014.85 1013.76 1013.36 1012.84 1010.99 1007.83 1004.23 1003.06 1002.90 1002.52 1002.58 1002.12 1002.16 1002.14 1002.04 1001.86 1001.40 1001.44 1000.81 1000.13 1000.39 1000.87 1001.26 1001.60 1001.19 1000.80 1001.24 1001.48 1001.16 1000.94 1000.68 1001.09 1002.68 1004.23 1006.48 1007.42 1008.04 1008.75 1009.82 1011.40 1012.10 1012.89
1017.41 1014.42 1013.08 1012.98 1013.22 1013.45 1012.00 1009.19 1005.00 1003.68 1003.48 1003.12 1002.49 1002.01 1001.94 1002.18 1002.01 1001.81 1001.69 1001.17 1001.33 1001.45 1000.86 1000.27 1000.67 1001.71 1001.99 1001.95 1001.93 1001.53 1001.37 1002.46 1002.68 1002.03 1002.23 1003.58 1005.72 1006.86 1007.78 1008.68 1009.37 1009.96 1011.52 1012.39 1012.90
1016.99 1014.15 1012.12 1012.64 1013.15 1012.58 1010.73 1008.16 1005.49 1004.84 1004.54 1003.51 1002.45 1002.03 1002.00 1002.14 1001.74 1001.41 1001.63 1002.40 1002.54 1002.61 1002.10 1001.30 1001.38 1001.83 1002.25 1002.48 1002.27 1002.32 1002.62 1002.50 1002.49 1002.61 1002.95 1003.05 1005.74 1008.09 1008.90 1009.53 1010.19 1010.71 1011.71 1012.72 1013.47
1016.65 1013.01 1012.13 1012.20 1012.82 1011.38 1009.11 1006.70 1005.91 1005.17 1004.94 1003.90 1002.59 1002.32 1002.07 1002.03 1001.43 1001.17 1001.94 1003.34 1003.46 1002.87 1002.61 1002.21 1002.53 1002.13 1002.54 1002.15 1001.98 1002.29 1002.24 1003.32 1004.09 1004.22 1004.45 1004.82 1007.88 1009.75 1010.38 1010.93 1011.18 1011.48 1012.35 1013.08 1013.54
1015.41 1012.03 1011.36 1011.83 1011.11 1009.50 1008.56 1006.94 1006.89 1005.37 1004.83 1004.22 1003.70 1002.57 1002.00 1001.99 1001.57 1001.78 1002.60 1003.17 1004.42 1003.96 1003.07 1003.99 1003.40 1002.39 1002.87 1003.62 1003.63 1003.90 1004.05 1004.46 1004.67 1004.75 1005.18 1006.38 1009.36 1010.90 1011.29 1011.69 1012.21 1012.44 1013.08 1013.67 1013.96
1014.15 1011.26 1010.82 1011.35 1009.57 1008.34 1007.67 1007.31 1006.59 1005.58 1004.84 1004.22 1003.71 1002.93 1002.52 1002.29 1002.18 1002.49 1003.58 1004.79 1004.76 1004.52 1004.78 1004.87 1004.26 1003.66 1003.71 1004.16 1004.49 1004.52 1005.30 1005.80 1006.18 1006.54 1006.08 1007.12 1009.59 1011.17 1011.81 1012.20 1012.63 1013.18 1013.70 1014.09 1014.48
1014.30 1010.91 1010.04 1010.35 1009.38 1009.05 1007.79 1007.22 1006.30 1005.56 1005.59 1004.84 1003.71 1003.57 1002.85 1002.50 1002.66 1003.00 1004.07 1005.03 1005.33 1005.84 1006.27 1005.95 1005.46 1004.98 1004.40 1004.63 1004.58 1005.63 1006.13 1006.49 1006.55 1006.70 1006.80 1008.15 1009.49 1010.69 1011.83 1012.74 1013.34 1013.86 1014.33 1014.80 1015.29
1014.17 1010.91 1010.01 1008.71 1008.38 1008.53 1008.53 1007.49 1006.52 1005.40 1005.40 1004.89 1003.97 1003.29 1003.01 1002.62 1002.61 1002.93 1003.96 1005.09 1005.85 1006.62 1006.41 1006.20 1005.90 1005.76 1005.68 1005.79 1005.91 1006.54 1007.08 1007.42 1007.68 1008.23 1008.43 1009.56 1010.38 1012.20 1013.19 1013.86 1014.27 1014.74 1015.33 1016.02 1016.45
1013.17 1011.70 1010.60 1009.33 1009.04 1008.74 1008.42 1007.43 1006.73 1005.69 1005.39 1004.50 1004.00 1003.08 1002.84 1002.54 1002.57 1003.05 1004.02 1004.52 1005.24 1006.13 1006.47 1006.77 1006.55 1006.55 1006.57 1006.80 1007.11 1007.59 1008.22 1008.65 1008.99 1009.19 1009.55 1010.31 1011.65 1013.11 1013.78 1014.49 1015.00 1015.62 1016.60 1017.17 1017.65
1013.38 1013.03 1012.02 1009.15 1008.75 1008.23 1007.37 1007.53 1006.86 1007.00 1005.72 1004.76 1003.56 1003.11 1002.93 1002.66 1003.00 1003.56 1004.59 1005.29 1005.62 1006.05 1006.62 1006.84 1006.87 1006.87 1006.92 1007.39 1007.78 1008.30 1009.15 1009.54 1009.87 1010.63 1010.95 1011.36 1013.02 1013.80 1014.39 1015.20 1015.59 1016.74 1017.74 1018.53 1019.34
Wind_Speed
14 15 16 17 17 17 18 17 18 16 16 17 17 16 15 14 16 11 9 6 7 14 7 12 12 12 11 11 8 9 12 6 10 9 11 10 14 10 4 17 19 15 15 12 10
16 15 16 17 18 19 19 19 19 17 16 16 16 16 14 12 12 16 7 10 10 9 13 13 13 11 12 10 6 10 10 14 7 8 9 10 14 12 8 18 11 19 13 9 8
14 15 17 18 19 19 19 20 19 17 16 15 16 15 13 14 11 11 8 9 7 10 14 11 6 13 11 8 7 7 9 5 5 7 6 7 16 15 18 18 16 13 12 18 15
15 17 18 20 21 21 21 21 20 19 16 16 16 14 11 12 2 11 10 9 7 13 11 10 11 13 10 10 5 10 5 5 8 3 6 7 16 18 19 18 15 15 14 14 16
15 17 19 20 22 22 22 21 20 18 15 16 15 11 9 10 4 12 12 8 11 14 13 13 13 14 11 7 5 11 6 1 5 6 8 14 16 18 18 17 18 16 18 19 18
16 17 19 21 22 23 23 21 19 17 14 15 12 7 8 12 9 13 14 12 16 14 11 9 4 7 6 4 10 5 1 5 8 7 9 13 13 14 21 19 20 17 18 21 21
16 18 20 23 24 25 24 22 18 15 13 13 8 8 10 3 7 12 13 14 11 8 7 3 8 10 2 7 2 6 10 10 7 11 11 27 10 16 23 15 21 18 18 18 17
17 18 19 23 25 26 25 22 17 10 9 8 8 11 4 4 5 12 13 9 6 6 6 6 7 13 9 3 7 11 13 13 15 7 7 11 14 16 19 18 18 18 17 16 17
17 19 20 22 26 29 27 22 14 5 7 8 6 8 6 4 11 14 12 12 11 8 7 5 10 15 9 12 15 11 12 11 11 12 5 7 16 15 13 17 16 16 16 14 15
17 19 22 22 25 29 27 15 4 3 8 9 7 8 8 10 11 10 11 7 9 10 10 13 10 14 14 16 10 13 14 12 9 13 12 8 14 9 11 15 15 14 15 13 13
17 20 23 25 26 29 17 6 4 7 9 10 4 6 6 6 5 11 11 12 11 9 16 16 15 16 13 3 11 7 4 5 9 3 8 11 11 11 11 14 14 14 13 12 11
15 19 22 25 27 25 14 7 8 7 12 10 8 10 8 5 10 13 13 13 12 17 14 10 16 9 2 4 7 7 2 10 7 5 11 11 13 11 12 12 14 13 12 12 10
14 17 21 25 28 11 5 10 8 5 8 9 8 8 12 11 12 14 14 14 13 13 14 13 14 5 6 6 7 3 4 7 9 7 13 12 12 3 15 12 12 10 9 9 8
14 16 17 29 4 11 4 9 11 3 7 13 9 8 8 11 7 14 14 8 8 12 11 2 9 9 8 5 9 9 3 1 4 12 3 17 4 27 18 18 13 13 8 7 6
13 15 15 10 10 8 7 10 10 4 8 15 15 9 10 16 17 12 9 9 14 5 9 11 11 10 8 11 6 8 3 6 8 11 15 11 9 12 14 7 11 10 8 6 3
14 13 15 1 9 9 9 11 6 9 4 8 9 14 13 12 14 15 10 9 7 5 14 9 1 5 13 2 4 3 6 9 9 14 12 20 8 17 16 19 11 4 7 4 3
15 17 10 9 6 8 8 5 8 9 12 9 15 17 17 12 12 13 15 15 11 10 9 7 13 7 6 10 8 10 9 10 10 8 3 14 7 13 14 11 11 12 7 7 1
18 19 4 7 8 7 6 6 8 4 4 8 13 16 15 14 12 13 14 15 9 13 8 10 9 12 5 9 8 4 9 8 9 10 7 10 10 6 12 12 11 11 11 9 9
23 9 8 5 1 4 6 7 4 4 5 7 11 12 10 12 7 12 14 14 7 5 10 5 9 6 1 4 8 3 5 9 8 16 10 13 11 14 10 10 7 10 12 7 9
9 9 9 6 4 6 6 12 7 4 6 8 11 14 12 12 13 12 8 5 5 5 7 4 4 5 9 6 8 8 8 7 6 7 6 6 20 9 10 10 8 8 8 10 8
8 6 8 7 6 6 8 11 3 4 5 6 8 8 11 11 12 11 8 9 4 4 5 3 6 10 7 7 10 3 5 1 4 5 8 10 10 10 9 8 7 7 11 10 12
7 8 8 5 8 7 8 6 3 8 4 6 5 12 9 12 10 4 7 6 1 4 2 5 6 3 11 6 6 4 9 7 7 6 7 6 9 7 8 8 9 11 12 12 11
8 8 7 5 7 9 7 8 5 7 6 6 8 5 10 11 4 6 9 2 2 3 5 3 1 6 7 9 5 3 4 2 3 7 1 7 8 6 6 5 5 8 10 10 14
6 6 7 8 9 7 5 9 10 7 8 6 2 8 10 10 7 9 11 5 6 9 3 3 2 8 9 7 10 5 3 4 4 6 10 10 9 9 11 12 12 11 12 13 14
6 7 7 7 11 10 5 5 8 8 7 6 8 13 12 10 9 11 11 12 8 5 2 1 1 1 3 5 8 7 6 7 8 8 8 9 8 10 9 9 11 12 13 14 15
5 6 5 9 4 6 6 8 7 1 4 9 9 13 13 10 8 9 11 10 5 8 5 2 5 5 7 6 9 9 7 5 6 10 6 1 14 8 8 10 12 11 11 13 16
5 4 6 4 11 10 10 11 4 6 4 6 8 9 9 8 7 14 13 9 5 6 5 6 8 8 6 7 10 9 7 5 6 9 9 10 9 9 10 11 9 11 14 15 14
Wind_Direction
345 338 332 330 326 323 322 319 313 319 315 313 312 306 306 310 292 225 231 43 141 168 193 181 201 203 226 230 248 246 261 92 37 11 49 23 14 13 254 88 70 53 60 90 117
339 334 331 328 325 323 321 317 313 316 314 313 308 304 305 311 276 235 118 95 130 194 207 179 186 188 203 212 213 252 274 58 23 26 3 66 29 0 35 42 24 72 81 110 102
334 332 328 325 323 323 317 313 312 313 312 313 304 300 300 298 263 104 138 123 155 230 252 236 194 207 220 195 192 212 10 63 50 27 336 31 65 32 49 58 49 69 85 65 77
335 332 329 328 325 322 318 313 316 308 313 314 300 294 297 253 316 93 137 145 189 249 241 216 219 220 221 212 155 252 73 348 37 106 37 58 95 70 71 74 69 62 68 70 58
337 331 329 326 324 322 317 313 308 301 325 314 295 284 265 221 94 126 142 158 214 221 225 207 204 223 230 214 188 250 112 185 100 81 96 91 82 88 77 80 79 77 76 79 75
333 328 326 326 325 320 315 311 307 317 330 305 280 261 244 242 96 143 171 173 227 218 213 262 268 344 314 244 238 106 246 180 165 149 112 93 120 111 74 61 76 77 75 65 57
328 328 328 327 325 321 316 311 316 325 325 289 243 240 260 34 135 161 169 196 215 246 221 225 321 252 334 207 217 204 215 187 186 162 131 70 41 97 113 108 96 97 88 87 89
329 329 329 325 325 318 318 310 320 323 312 259 210 253 284 122 170 180 185 188 211 232 275 298 269 280 265 42 209 231 236 193 163 194 205 218 149 118 119 114 105 99 90 83 76
330 328 330 324 324 320 318 315 303 297 234 227 234 238 164 135 206 194 188 201 198 217 230 276 257 253 189 222 205 207 211 192 152 208 277 242 138 117 120 117 114 109 111 105 93
330 327 327 326 325 318 316 293 221 230 215 232 260 257 196 205 171 185 193 251 208 203 218 221 225 220 222 218 240 178 221 168 178 171 248 124 95 110 130 125 122 124 107 102 94
331 329 327 326 324 318 325 190 258 184 240 280 331 294 131 111 163 207 187 202 232 229 227 195 221 216 208 344 338 353 233 127 65 112 244 98 141 155 136 132 140 127 123 115 113
330 327 327 324 320 316 291 58 55 323 300 262 249 268 257 244 195 205 179 204 201 222 223 189 231 61 32 256 251 242 152 115 142 204 266 145 168 157 164 149 137 140 131 129 123
327 325 326 321 320 313 358 53 325 323 257 194 207 245 186 201 203 175 197 221 210 233 202 229 92 131 205 199 231 222 252 148 215 185 256 192 144 310 167 159 134 118 128 135 127
324 323 330 326 303 322 39 357 328 0 267 154 190 223 188 222 196 167 205 265 218 220 208 153 123 194 213 216 288 202 212 254 180 253 214 262 250 203 175 163 174 146 146 134 131
317 320 323 323 310 320 2 329 333 238 240 150 151 126 186 216 143 192 196 228 253 204 248 126 175 217 214 32 291 52 349 274 260 247 288 232 251 58 32 110 158 150 149 126 170
313 317 329 247 247 271 320 309 249 232 189 150 158 179 186 217 192 147 198 234 342 232 226 143 50 265 85 146 300 62 237 232 243 247 234 358 313 108 159 196 148 139 130 174 117
307 303 302 312 296 341 323 264 242 258 140 157 175 181 190 189 182 180 197 201 199 215 194 173 188 128 246 170 171 228 209 231 232 216 130 203 304 63 59 56 119 111 154 73 299
304 301 225 244 306 318 279 245 261 21 142 159 174 186 193 179 190 198 194 205 223 254 190 208 172 178 159 292 360 45 328 348 330 335 11 178 38 83 72 72 69 124 91 52 43
300 276 256 230 264 260 256 258 284 19 33 167 185 193 177 189 190 187 202 211 178 232 311 212 117 119 224 276 293 63 254 30 297 250 255 117 128 99 85 87 50 65 68 47 25
308 291 256 116 196 255 246 248 307 359 309 259 192 190 165 184 196 186 173 33 131 275 282 10 125 198 139 253 202 293 359 281 225 313 321 352 66 79 47 36 47 48 44 50 357
269 261 107 150 205 236 245 252 293 337 303 241 237 212 187 182 202 181 153 117 261 136 264 318 259 145 192 218 2 243 204 21 286 293 328 290 82 49 55 46 37 34 38 10 7
273 244 118 184 241 221 240 280 29 276 236 250 296 229 185 192 202 125 165 80 138 314 152 65 301 290 57 61 1 14 355 337 318 16 326 286 89 58 36 50 20 15 24 358 1
259 260 130 226 243 223 217 270 266 280 245 202 220 242 213 187 168 141 94 85 146 20 41 23 219 235 200 186 180 33 51 16 277 269 176 304 104 92 58 16 38 9 353 346 353
273 233 191 206 267 302 311 258 252 212 253 260 300 204 206 176 184 155 129 102 87 84 348 310 303 294 343 25 87 117 51 4 327 289 359 50 112 69 38 12 5 358 356 358 356
239 247 5 181 216 205 237 306 255 229 218 239 208 214 196 191 174 173 135 135 130 153 129 51 216 226 90 69 75 80 65 46 53 26 7 50 55 40 23 354 356 352 12 8 351
275 254 183 274 298 234 194 239 242 223 243 199 250 211 194 207 180 155 159 163 145 169 121 198 130 135 128 120 103 95 82 67 55 6 65 221 88 41 18 357 354 23 3 3 4
233 283 283 211 211 228 210 231 199 306 229 258 221 192 188 161 84 83 72 53 90 144 152 171 155 200 126 154 153 137 53 34 100 48 8 32 29 16 6 358 4 30 9 6 5